KD5NDU-15 Weather Reports


time (UTC)temp
C
wind
direction
speed
KPH
gust
KPH
rain 1hr
cm
rain 24hr
cm
rain mn
cm
humidity
%
barometer
mb
20260906030630 29 236 3.2 4.8 0.00 0.00 0.00 77 1012.7
20260906030130 29 229 3.2 6.4 0.00 0.00 0.00 76 1012.7
20260906025630 29 229 4.8 6.4 0.00 0.00 0.00 76 1012.7
20260906025130 29 234 4.8 8.0 0.00 0.00 0.00 75 1012.6
20260906024630 30 231 4.8 6.4 0.00 0.00 0.00 75 1012.7
20260906024130 30 239 4.8 8.0 0.00 0.00 0.00 74 1012.6
20260906023630 30 235 4.8 8.0 0.00 0.00 0.00 74 1012.6
20260906023130 30 233 6.4 8.0 0.00 0.00 0.00 73 1012.6
20260906022630 30 232 4.8 11.3 0.00 0.00 0.00 73 1012.5
20260906022130 30 233 4.8 6.4 0.00 0.00 0.00 72 1012.5
20260906021630 30 226 4.8 8.0 0.00 0.00 0.00 72 1012.5
20260906021130 30 233 4.8 8.0 0.00 0.00 0.00 72 1012.5
20260906020630 30 226 6.4 9.7 0.00 0.00 0.00 71 1012.3
20260906020130 30 235 6.4 11.3 0.00 0.00 0.00 72 1012.3
20260906015630 30 245 6.4 11.3 0.00 0.00 0.00 72 1012.3
20260906015130 30 237 6.4 12.9 0.00 0.00 0.00 72 1012.0
20260906014630 30 190 6.4 11.3 0.00 0.00 0.00 71 1012.0
20260906014130 30 207 1.6 14.5 0.00 0.00 0.00 70 1011.9
20260906013630 31 92 0.0 3.2 0.00 0.00 0.00 64 1011.9
20260906013130 31 86 0.0 0.0 0.00 0.00 0.00 64 1011.7
20260906012630 31 86 0.0 0.0 0.00 0.00 0.00 64 1011.9
20260906012130 31 86 0.0 1.6 0.00 0.00 0.00 64 1011.8
20260906011630 31 86 0.0 0.0 0.00 0.00 0.00 65 1011.6
20260906011130 31 86 0.0 1.6 0.00 0.00 0.00 63 1011.4
20260906010630 32 86 0.0 3.2 0.00 0.00 0.00 63 1011.3
20260906010130 32 86 1.6 1.6 0.00 0.00 0.00 63 1011.3
20260906005630 32 85 0.0 3.2 0.00 0.00 0.00 64 1011.3
20260906005130 33 84 0.0 3.2 0.00 0.00 0.00 58 1011.2
20260906004630 33 84 0.0 3.2 0.00 0.00 0.00 57 1011.2
20260906004130 33 77 0.0 3.2 0.00 0.00 0.00 57 1011.2
20260906003630 33 77 0.0 1.6 0.00 0.00 0.00 56 1011.2
20260906003130 33 77 0.0 0.0 0.00 0.00 0.00 56 1011.2
20260906002630 33 77 0.0 1.6 0.00 0.00 0.00 55 1011.3
20260906002130 34 77 0.0 0.0 0.00 0.00 0.00 55 1011.3
20260906001630 35 77 0.0 0.0 0.00 0.00 0.00 57 1011.2
20260906001130 35 77 0.0 3.2 0.00 0.00 0.00 54 1011.2
20260906000630 35 76 0.0 3.2 0.00 0.00 0.00 52 1011.2
20260906000130 35 76 0.0 3.2 0.00 0.00 0.00 51 1011.1
20260905235630 35 100 0.0 1.6 0.00 0.00 0.00 51 1011.0
20260905235130 36 52 0.0 3.2 0.00 0.00 0.00 50 1011.1
20260905234630 36 46 0.0 0.0 0.00 0.00 0.00 50 1011.1
20260905234130 36 46 0.0 0.0 0.00 0.00 0.00 50 1011.1
20260905233630 36 46 0.0 1.6 0.00 0.00 0.00 49 1011.0
20260905233130 36 46 0.0 1.6 0.00 0.00 0.00 49 1011.0
20260905232630 36 46 0.0 1.6 0.00 0.00 0.00 48 1011.0
20260905232130 36 46 0.0 1.6 0.00 0.00 0.00 48 1010.9
20260905231630 36 46 1.6 4.8 0.00 0.00 0.00 49 1010.7
20260905231130 36 17 1.6 4.8 0.00 0.00 0.00 48 1010.7
20260905230630 37 144 1.6 6.4 0.00 0.00 0.00 48 1010.8
20260905230130 37 34 0.0 4.8 0.00 0.00 0.00 49 1010.8
20260905225630 37 54 1.6 3.2 0.00 0.00 0.00 48 1010.7
20260905225130 37 75 1.6 4.8 0.00 0.00 0.00 47 1010.6
20260905224630 37 54 1.6 4.8 0.00 0.00 0.00 47 1010.7
20260905224130 37 77 1.6 11.3 0.00 0.00 0.00 46 1010.7
20260905223630 37 78 1.6 4.8 0.00 0.00 0.00 45 1010.7
20260905223130 38 4 1.6 4.8 0.00 0.00 0.00 45 1010.8
20260905222630 38 4 3.2 4.8 0.00 0.00 0.00 45 1010.8
20260905222130 38 0 3.2 14.5 0.00 0.00 0.00 44 1010.8
20260905221630 38 89 1.6 8.0 0.00 0.00 0.00 45 1010.9
20260905221130 38 86 3.2 6.4 0.00 0.00 0.00 43 1011.0
20260905220630 38 220 3.2 4.8 0.00 0.00 0.00 43 1010.9
20260905220130 39 125 1.6 4.8 0.00 0.00 0.00 43 1011.1
20260905215630 39 64 3.2 4.8 0.00 0.00 0.00 44 1011.2
20260905215130 39 49 3.2 6.4 0.00 0.00 0.00 43 1011.3
20260905214630 39 16 1.6 6.4 0.00 0.00 0.00 42 1011.3
20260905214130 39 149 3.2 9.7 0.00 0.00 0.00 43 1011.3
20260905213630 39 75 3.2 11.3 0.00 0.00 0.00 43 1011.3
20260905213130 39 98 3.2 8.0 0.00 0.00 0.00 43 1011.4
20260905212630 38 103 4.8 8.0 0.00 0.00 0.00 44 1011.4
20260905212130 38 72 4.8 12.9 0.00 0.00 0.00 44 1011.4
20260905211630 39 61 4.8 9.7 0.00 0.00 0.00 43 1011.5
20260905211130 38 129 4.8 11.3 0.00 0.00 0.00 43 1011.5
20260905210630 39 65 3.2 12.9 0.00 0.00 0.00 44 1011.5
20260905210130 39 321 3.2 4.8 0.00 0.00 0.00 45 1011.5
20260905205630 38 221 4.8 12.9 0.00 0.00 0.00 45 1011.6
20260905205130 38 268 3.2 8.0 0.00 0.00 0.00 44 1011.4
20260905204630 38 77 3.2 6.4 0.00 0.00 0.00 44 1011.6
20260905204130 38 311 4.8 9.7 0.00 0.00 0.00 45 1011.6
20260905203630 38 173 6.4 14.5 0.00 0.00 0.00 44 1011.7
20260905203131 38 189 4.8 17.7 0.00 0.00 0.00 45 1011.7
20260905202630 39 359 3.2 8.0 0.00 0.00 0.00 45 1011.8
20260905202130 38 164 4.8 14.5 0.00 0.00 0.00 44 1011.9
20260905201631 38 179 6.4 17.7 0.00 0.00 0.00 44 1011.9
20260905201131 39 223 6.4 16.1 0.00 0.00 0.00 44 1011.9
20260905200631 39 131 4.8 11.3 0.00 0.00 0.00 44 1011.8
20260905200131 39 108 3.2 8.0 0.00 0.00 0.00 45 1011.9
20260905195631 38 125 4.8 12.9 0.00 0.00 0.00 45 1012.0
20260905195131 38 103 4.8 14.5 0.00 0.00 0.00 45 1012.0
20260905194631 38 348 3.2 8.0 0.00 0.00 0.00 44 1012.2
20260905194131 38 86 3.2 6.4 0.00 0.00 0.00 46 1012.3
20260905193631 38 151 3.2 6.4 0.00 0.00 0.00 46 1012.3
20260905193131 38 204 3.2 9.7 0.00 0.00 0.00 46 1012.5
20260905192631 38 224 4.8 14.5 0.00 0.00 0.00 46 1012.5
20260905192131 38 278 6.4 12.9 0.00 0.00 0.00 47 1012.6
20260905191631 38 140 6.4 14.5 0.00 0.00 0.00 48 1012.7
20260905191131 38 176 4.8 12.9 0.00 0.00 0.00 47 1012.7
20260905190631 38 212 4.8 8.0 0.00 0.00 0.00 47 1012.9
20260905190131 38 313 6.4 11.3 0.00 0.00 0.00 48 1013.1
20260905185631 38 145 6.4 12.9 0.00 0.00 0.00 48 1013.0
20260905185131 38 131 6.4 12.9 0.00 0.00 0.00 48 1013.2
20260905184631 37 217 6.4 14.5 0.00 0.00 0.00 49 1013.2
20260905184131 38 86 4.8 16.1 0.00 0.00 0.00 48 1013.2
20260905183631 38 88 4.8 11.3 0.00 0.00 0.00 48 1013.3
20260905183131 37 115 4.8 16.1 0.00 0.00 0.00 49 1013.4
20260905182631 37 247 4.8 14.5 0.00 0.00 0.00 49 1013.5
20260905182131 37 203 4.8 12.9 0.00 0.00 0.00 51 1013.6
20260905181631 37 65 6.4 12.9 0.00 0.00 0.00 49 1013.7
20260905181131 37 110 6.4 14.5 0.00 0.00 0.00 51 1013.6
20260905180631 37 161 4.8 12.9 0.00 0.00 0.00 50 1013.7
20260905180131 37 209 4.8 11.3 0.00 0.00 0.00 50 1013.8
20260905175631 37 70 4.8 8.0 0.00 0.00 0.00 52 1013.9
20260905175131 37 2 4.8 11.3 0.00 0.00 0.00 53 1013.8
20260905174631 37 162 4.8 9.7 0.00 0.00 0.00 52 1013.9
20260905174131 37 14 4.8 8.0 0.00 0.00 0.00 52 1014.0
20260905173631 37 127 4.8 14.5 0.00 0.00 0.00 51 1014.0
20260905173131 38 127 3.2 14.5 0.00 0.00 0.00 50 1014.1
20260905172631 38 162 1.6 4.8 0.00 0.00 0.00 53 1014.0
20260905172131 37 226 3.2 6.4 0.00 0.00 0.00 54 1014.0
20260905171631 37 307 3.2 4.8 0.00 0.00 0.00 54 1014.1
20260905171131 37 359 4.8 9.7 0.00 0.00 0.00 53 1014.2
20260905170631 36 150 6.4 9.7 0.00 0.00 0.00 56 1014.4
20260905170131 37 98 4.8 12.9 0.00 0.00 0.00 54 1014.5
20260905165631 37 181 3.2 6.4 0.00 0.00 0.00 56 1014.5
20260905165131 37 55 3.2 9.7 0.00 0.00 0.00 56 1014.6
20260905164631 37 106 3.2 8.0 0.00 0.00 0.00 56 1014.7
20260905164131 36 295 3.2 8.0 0.00 0.00 0.00 58 1014.7
20260905163631 36 27 3.2 8.0 0.00 0.00 0.00 59 1014.6
20260905163131 36 86 3.2 9.7 0.00 0.00 0.00 58 1014.8
20260905162631 36 0 3.2 4.8 0.00 0.00 0.00 59 1014.7
20260905162131 36 15 3.2 8.0 0.00 0.00 0.00 59 1014.6
20260905161631 36 28 3.2 6.4 0.00 0.00 0.00 59 1014.7
20260905161131 36 1 3.2 4.8 0.00 0.00 0.00 60 1014.9
20260905160631 36 32 3.2 8.0 0.00 0.00 0.00 61 1014.8
20260905160131 36 71 3.2 4.8 0.00 0.00 0.00 61 1014.8
20260905155631 35 49 3.2 11.3 0.00 0.00 0.00 62 1014.9
20260905155131 36 113 1.6 8.0 0.00 0.00 0.00 61 1015.0
20260905154631 35 64 1.6 6.4 0.00 0.00 0.00 63 1014.9
20260905154131 35 18 1.6 4.8 0.00 0.00 0.00 64 1014.8
20260905153631 35 20 1.6 3.2 0.00 0.00 0.00 64 1014.8
20260905153131 35 20 1.6 3.2 0.00 0.00 0.00 65 1014.9
20260905152631 34 20 1.6 3.2 0.00 0.00 0.00 65 1014.8
20260905152131 34 101 1.6 6.4 0.00 0.00 0.00 66 1014.8
20260905151631 33 357 1.6 4.8 0.00 0.00 0.00 67 1014.8
20260905151131 33 25 3.2 6.4 0.00 0.00 0.00 68 1014.9
20260905150631 33 105 1.6 6.4 0.00 0.00 0.00 68 1014.9
20260905150131 33 55 0.0 4.8 0.00 0.00 0.00 70 1015.0
20260905145631 33 272 1.6 1.6 0.00 0.00 0.00 72 1015.1
20260905145131 32 257 1.6 3.2 0.00 0.00 0.00 73 1015.1
20260905144631 32 238 1.6 4.8 0.00 0.00 0.00 73 1015.0
20260905144131 32 164 1.6 4.8 0.00 0.00 0.00 75 1015.0
20260905143631 31 1 0.0 3.2 0.00 0.00 0.00 76 1015.0
20260905143131 31 1 0.0 3.2 0.00 0.00 0.00 78 1015.1
20260905142631 31 1 0.0 1.6 0.00 0.00 0.00 79 1014.9
20260905142131 30 44 0.0 4.8 0.00 0.00 0.00 80 1014.8
20260905141631 30 62 0.0 4.8 0.00 0.00 0.00 81 1014.8
20260905141131 30 211 0.0 1.6 0.00 0.00 0.00 83 1015.0
20260905140631 29 211 0.0 3.2 0.00 0.00 0.00 83 1015.1
20260905140131 29 216 0.0 1.6 0.00 0.00 0.00 84 1015.1
20260905135631 28 216 0.0 1.6 0.00 0.00 0.00 86 1015.1
20260905135131 28 216 0.0 1.6 0.00 0.00 0.00 87 1015.0
20260905134631 27 216 0.0 1.6 0.00 0.00 0.00 89 1014.9
20260905134131 27 216 0.0 3.2 0.00 0.00 0.00 89 1014.9
20260905133631 26 217 0.0 0.0 0.00 0.00 0.00 92 1014.8
20260905133131 26 217 0.0 0.0 0.00 0.00 0.00 93 1014.8
20260905132631 25 217 0.0 0.0 0.00 0.00 0.00 94 1014.8
20260905132131 25 217 0.0 0.0 0.00 0.00 0.00 94 1014.6
20260905131631 25 217 0.0 0.0 0.00 0.00 0.00 94 1014.7
20260905131131 24 217 0.0 0.0 0.00 0.00 0.00 95 1014.6
20260905130631 24 217 0.0 0.0 0.00 0.00 0.00 95 1014.6
20260905130131 23 217 0.0 0.0 0.00 0.00 0.00 95 1014.6
20260905125631 23 217 0.0 0.0 0.00 0.00 0.00 96 1014.7
20260905125131 23 217 0.0 0.0 0.00 0.00 0.00 96 1014.7
20260905124631 23 217 0.0 0.0 0.00 0.00 0.00 96 1014.8
20260905124131 23 217 0.0 0.0 0.00 0.00 0.00 96 1014.7
20260905123631 23 217 0.0 0.0 0.00 0.00 0.00 96 1014.8
20260905123131 22 217 0.0 0.0 0.00 0.00 0.00 96 1014.8
20260905122631 22 217 0.0 0.0 0.00 0.00 0.00 96 1014.7
20260905122131 22 217 0.0 0.0 0.00 0.00 0.00 96 1014.7
20260905121631 22 217 0.0 0.0 0.00 0.00 0.00 96 1014.6
20260905121131 22 217 0.0 0.0 0.00 0.00 0.00 95 1014.6
20260905120631 22 217 0.0 0.0 0.00 0.00 0.00 95 1014.6
20260905120131 22 217 0.0 0.0 0.00 0.00 0.00 95 1014.5
20260905115631 22 217 0.0 0.0 0.00 0.00 0.00 95 1014.5
20260905115131 22 217 0.0 0.0 0.00 0.00 0.00 95 1014.5
20260905114631 22 217 0.0 0.0 0.00 0.00 0.00 95 1014.5
20260905114131 22 217 0.0 0.0 0.00 0.00 0.00 96 1014.4
20260905113631 22 217 0.0 0.0 0.00 0.00 0.00 95 1014.3
20260905113131 22 217 0.0 0.0 0.00 0.00 0.00 95 1014.3
20260905112631 22 217 0.0 0.0 0.00 0.00 0.00 95 1014.3
20260905112131 22 217 0.0 0.0 0.00 0.00 0.00 95 1014.3
20260905111631 22 217 0.0 0.0 0.00 0.00 0.00 95 1014.3
20260905111131 22 217 0.0 0.0 0.00 0.00 0.00 95 1014.1
20260905110631 23 217 0.0 0.0 0.00 0.00 0.00 95 1014.1
20260905110131 23 217 0.0 0.0 0.00 0.00 0.00 95 1014.1
20260905105631 23 217 0.0 0.0 0.00 0.00 0.00 95 1014.1
20260905105131 23 217 0.0 0.0 0.00 0.00 0.00 95 1014.0
20260905104631 23 217 0.0 0.0 0.00 0.00 0.00 95 1014.0
20260905104131 23 217 0.0 0.0 0.00 0.00 0.00 95 1013.9
20260905103631 23 217 0.0 0.0 0.00 0.00 0.00 95 1013.9
20260905103131 23 217 0.0 0.0 0.00 0.00 0.00 95 1013.9
20260905102631 23 217 0.0 0.0 0.00 0.00 0.00 95 1013.9
20260905102131 23 217 0.0 0.0 0.00 0.00 0.00 95 1013.9
20260905101631 23 217 0.0 0.0 0.00 0.00 0.00 95 1014.0
20260905101131 23 217 0.0 0.0 0.00 0.00 0.00 95 1014.0
20260905100631 23 217 0.0 0.0 0.00 0.00 0.00 95 1013.9
20260905100131 23 217 0.0 0.0 0.00 0.00 0.00 95 1014.0
20260905095631 23 217 0.0 0.0 0.00 0.00 0.00 95 1014.0
20260905095131 23 217 0.0 0.0 0.00 0.00 0.00 95 1014.0
20260905094631 23 217 0.0 0.0 0.00 0.00 0.00 95 1013.9
20260905094131 23 217 0.0 1.6 0.00 0.00 0.00 95 1013.9
20260905093631 23 217 0.0 4.8 0.00 0.00 0.00 95 1014.0
20260905093131 23 215 0.0 0.0 0.00 0.00 0.00 95 1014.0
20260905092631 23 215 0.0 1.6 0.00 0.00 0.00 95 1013.8
20260905092131 23 215 0.0 0.0 0.00 0.00 0.00 95 1013.8
20260905091631 23 215 0.0 0.0 0.00 0.00 0.00 95 1013.9
20260905091132 23 215 0.0 3.2 0.00 0.00 0.00 95 1013.9
20260905090631 23 215 0.0 0.0 0.00 0.00 0.00 95 1013.8
20260905090131 23 215 0.0 0.0 0.00 0.00 0.00 95 1013.8
20260905085631 23 215 0.0 0.0 0.00 0.00 0.00 95 1013.8
20260905085131 23 215 0.0 0.0 0.00 0.00 0.00 95 1013.8
20260905084631 23 215 0.0 0.0 0.00 0.00 0.00 95 1013.8
20260905084131 23 215 0.0 0.0 0.00 0.00 0.00 95 1013.7
20260905083631 23 215 0.0 0.0 0.00 0.00 0.00 95 1013.8
20260905083131 23 215 0.0 1.6 0.00 0.00 0.00 95 1013.8
20260905082631 23 215 1.6 1.6 0.00 0.00 0.00 94 1013.7
20260905082131 23 215 1.6 4.8 0.00 0.00 0.00 94 1013.8
20260905081631 23 215 0.0 3.2 0.00 0.00 0.00 94 1013.8
20260905081131 23 215 0.0 1.6 0.00 0.00 0.00 94 1013.7
20260905080631 23 215 0.0 0.0 0.00 0.00 0.00 94 1013.6
20260905080131 23 215 0.0 0.0 0.00 0.00 0.00 94 1013.7
20260905075631 23 215 0.0 0.0 0.00 0.00 0.00 94 1013.8
20260905075131 23 215 0.0 0.0 0.00 0.00 0.00 94 1013.7
20260905074631 23 215 0.0 0.0 0.00 0.00 0.00 94 1013.8
20260905074131 23 215 0.0 0.0 0.00 0.00 0.00 94 1013.8
20260905073631 23 215 0.0 0.0 0.00 0.00 0.00 94 1013.8
20260905073132 23 215 0.0 0.0 0.00 0.00 0.00 95 1013.8
20260905072631 23 215 0.0 1.6 0.00 0.00 0.00 95 1013.8
20260905072132 23 215 1.6 3.2 0.00 0.00 0.00 94 1013.8
20260905071631 23 215 1.6 4.8 0.00 0.00 0.00 95 1014.0
20260905071132 23 215 1.6 6.4 0.00 0.00 0.00 95 1014.0
20260905070632 24 213 1.6 3.2 0.00 0.00 0.00 94 1013.8
20260905070132 24 213 1.6 3.2 0.00 0.00 0.00 94 1013.9
20260905065632 24 213 0.0 3.2 0.00 0.00 0.00 93 1013.7
20260905065132 24 213 0.0 3.2 0.00 0.00 0.00 92 1013.8
20260905064632 24 213 1.6 1.6 0.00 0.00 0.00 91 1013.8
20260905064132 24 213 0.0 3.2 0.00 0.00 0.00 91 1013.8
20260905063632 24 213 0.0 1.6 0.00 0.00 0.00 91 1013.9
20260905063132 24 213 0.0 1.6 0.00 0.00 0.00 91 1013.8
20260905062632 24 213 0.0 1.6 0.00 0.00 0.00 92 1013.7
20260905062132 24 213 0.0 3.2 0.00 0.00 0.00 92 1013.9
20260905061632 24 213 0.0 0.0 0.00 0.00 0.00 92 1013.9
20260905061132 24 213 0.0 0.0 0.00 0.00 0.00 93 1013.9
20260905060632 24 213 0.0 0.0 0.00 0.00 0.00 93 1013.9
20260905060132 24 213 0.0 1.6 0.00 0.00 0.00 92 1013.9
20260905055632 25 213 0.0 1.6 0.00 0.00 0.00 92 1013.8
20260905055132 25 213 0.0 0.0 0.00 0.00 0.00 93 1013.9
20260905054632 25 213 1.6 1.6 0.00 0.00 0.00 92 1013.9
20260905054132 25 213 1.6 4.8 0.00 0.00 0.00 93 1013.8
20260905053632 25 213 0.0 3.2 0.00 0.00 0.00 92 1013.9
20260905053132 25 213 3.2 3.2 0.00 0.00 0.00 92 1014.0
20260905052632 25 213 3.2 9.7 0.00 0.00 0.00 92 1014.0
20260905052132 25 212 0.0 9.7 0.00 0.00 0.00 90 1014.0
20260905051632 25 82 0.0 0.0 0.00 0.00 0.00 88 1013.7
20260905051132 25 82 0.0 0.0 0.00 0.00 0.00 87 1013.8
20260905050632 25 82 0.0 0.0 0.00 0.00 0.00 89 1013.7
20260905050132 25 82 0.0 0.0 0.00 0.00 0.00 89 1013.7
20260905045632 25 82 0.0 0.0 0.00 0.00 0.00 89 1013.7
20260905045132 26 82 0.0 0.0 0.00 0.00 0.00 88 1013.8
20260905044632 26 82 0.0 0.0 0.00 0.00 0.00 87 1013.7
20260905044132 26 82 0.0 0.0 0.00 0.00 0.00 88 1013.7
20260905043632 26 82 0.0 0.0 0.00 0.00 0.00 88 1013.8
20260905043132 26 82 0.0 0.0 0.00 0.00 0.00 88 1013.8
20260905042632 26 82 0.0 0.0 0.00 0.00 0.00 86 1013.8
20260905042132 27 82 0.0 0.0 0.00 0.00 0.00 83 1013.9
20260905041632 27 82 0.0 0.0 0.00 0.00 0.00 83 1013.9
20260905041132 27 82 0.0 0.0 0.00 0.00 0.00 82 1013.9
20260905040632 27 82 0.0 0.0 0.00 0.00 0.00 81 1014.0
20260905040132 26 82 0.0 0.0 0.00 0.00 0.00 82 1014.0
20260905035632 26 82 0.0 0.0 0.00 0.00 0.00 84 1014.0
20260905035132 26 82 0.0 0.0 0.00 0.00 0.00 83 1013.9
20260905034632 26 82 0.0 0.0 0.00 0.00 0.00 85 1013.9
20260905034132 26 82 0.0 0.0 0.00 0.00 0.00 84 1013.9
20260905033632 26 82 1.6 1.6 0.00 0.00 0.00 84 1014.0
20260905033132 26 82 1.6 3.2 0.00 0.00 0.00 85 1014.0
20260905032632 26 82 1.6 3.2 0.00 0.00 0.00 84 1014.0
20260905032132 26 82 0.0 3.2 0.00 0.00 0.00 84 1014.1
20260905031632 27 83 0.0 1.6 0.00 0.00 0.00 82 1014.1
20260905031132 27 83 0.0 0.0 0.00 0.00 0.00 83 1014.1